TimeEDT,TemperatureF,Dew PointF,Humidity,Sea Level PressureIn,VisibilityMPH,Wind Direction,Wind SpeedMPH,Gust SpeedMPH,PrecipitationIn,Events,Conditions,WindDirDegrees,DateUTC
12:16 AM,42.6,36.1,78,30.21,10.0,Calm,Calm,-,N/A,,Clear,0,2013-07-02 04:16:00
12:37 AM,41.4,35.4,79,30.21,10.0,Calm,Calm,-,N/A,,Clear,0,2013-07-02 04:37:00
12:56 AM,39.9,34.5,81,30.21,10.0,Calm,Calm,-,N/A,,Clear,0,2013-07-02 04:56:00
1:17 AM,40.3,34.7,80,30.21,10.0,Calm,Calm,-,N/A,,Clear,0,2013-07-02 05:17:00
1:36 AM,38.7,34.0,83,30.21,10.0,Calm,Calm,-,N/A,,Clear,0,2013-07-02 05:36:00
1:56 AM,40.5,34.5,79,30.21,10.0,North,3.5,-,N/A,,Clear,10,2013-07-02 05:56:00
2:17 AM,41.5,34.9,77,30.21,10.0,Calm,Calm,-,N/A,,Clear,0,2013-07-02 06:17:00
2:36 AM,39.9,34.3,80,30.20,10.0,Calm,Calm,-,N/A,,Clear,0,2013-07-02 06:36:00
2:57 AM,38.7,33.6,82,30.20,10.0,Calm,Calm,-,N/A,,Clear,0,2013-07-02 06:57:00
3:16 AM,38.3,34.2,85,30.20,10.0,Calm,Calm,-,N/A,,Clear,0,2013-07-02 07:16:00
3:36 AM,38.3,34.2,85,30.20,10.0,Calm,Calm,-,N/A,,Clear,0,2013-07-02 07:36:00
3:57 AM,38.3,34.2,85,30.20,10.0,Calm,Calm,-,N/A,,Clear,0,2013-07-02 07:57:00
4:16 AM,39.4,34.5,83,30.20,10.0,Calm,Calm,-,N/A,,Clear,0,2013-07-02 08:16:00
4:37 AM,39.2,34.7,84,30.20,10.0,Calm,Calm,-,N/A,,Clear,0,2013-07-02 08:37:00
4:56 AM,38.7,34.0,83,30.20,10.0,Calm,Calm,-,N/A,,Clear,0,2013-07-02 08:56:00
5:16 AM,39.0,34.7,84,30.20,10.0,Calm,Calm,-,N/A,,Clear,0,2013-07-02 09:16:00
5:36 AM,39.2,34.7,84,30.20,10.0,Calm,Calm,-,N/A,,Clear,0,2013-07-02 09:36:00
5:56 AM,38.7,34.2,84,30.20,10.0,Calm,Calm,-,N/A,,Clear,0,2013-07-02 09:56:00
6:50 AM,39.2,35.6,87,30.20,10.0,Calm,Calm,-,N/A,,Clear,0,2013-07-02 10:50:00
7:55 AM,50.0,41.0,71,30.21,10.0,Calm,Calm,-,N/A,,Clear,0,2013-07-02 11:55:00
8:55 AM,59.0,41.0,51,30.20,10.0,Calm,Calm,-,N/A,,Clear,0,2013-07-02 12:55:00
10:55 AM,66.2,44.6,46,30.20,10.0,Calm,Calm,-,N/A,,Clear,0,2013-07-02 14:55:00
11:55 AM,69.8,41.0,35,30.19,10.0,Calm,Calm,-,N/A,,Clear,0,2013-07-02 15:55:00
12:50 PM,69.8,42.8,38,30.19,10.0,East,6.9,-,N/A,,Clear,90,2013-07-02 16:50:00
1:50 PM,69.8,41.0,35,30.18,10.0,Calm,Calm,-,N/A,,Clear,0,2013-07-02 17:50:00
2:50 PM,71.6,42.8,35,30.17,10.0,NNE,11.5,-,N/A,,Clear,30,2013-07-02 18:50:00
3:50 PM,71.6,42.8,35,30.16,10.0,ENE,10.4,16.1,N/A,,Clear,60,2013-07-02 19:50:00
4:50 PM,71.6,42.8,35,30.14,10.0,NE,10.4,-,N/A,,Clear,40,2013-07-02 20:50:00
5:55 PM,69.8,44.6,40,30.13,10.0,NE,12.7,-,N/A,,Clear,40,2013-07-02 21:55:00
6:55 PM,68.0,41.0,37,30.13,10.0,NE,8.1,-,N/A,,Clear,50,2013-07-02 22:55:00
7:50 PM,66.2,42.8,43,30.12,10.0,NE,8.1,-,N/A,,Clear,40,2013-07-02 23:50:00
8:55 PM,62.6,42.8,48,30.13,10.0,NE,5.8,-,N/A,,Clear,50,2013-07-03 00:55:00
9:50 PM,60.8,42.8,52,30.13,10.0,NE,4.6,-,N/A,,Clear,50,2013-07-03 01:50:00
10:16 PM,59.2,44.2,58,30.13,10.0,Calm,Calm,-,N/A,,Clear,0,2013-07-03 02:16:00
10:36 PM,55.9,44.1,64,30.14,10.0,Calm,Calm,-,N/A,,Clear,0,2013-07-03 02:36:00
10:56 PM,54.1,44.2,69,30.14,10.0,Calm,Calm,-,N/A,,Clear,0,2013-07-03 02:56:00
11:17 PM,53.4,43.2,68,30.14,10.0,Calm,Calm,-,N/A,,Clear,0,2013-07-03 03:17:00
11:36 PM,52.7,43.0,70,30.13,10.0,Calm,Calm,-,N/A,,Clear,0,2013-07-03 03:36:00
11:56 PM,53.2,43.0,68,30.13,10.0,Calm,Calm,-,N/A,,Clear,0,2013-07-03 03:56:00